Location: Four Corners
(38.2757°N, 122.4608°W)
Time: 23:10:02
(UTC+00:00)

SL-4 R/B - Pass Details

Date: 08 December 2019
Orbit: 428 x 667 km, 51.6° (Epoch: 19 January)

Event Time Altitude Azimuth Distance (km) Brightness Sun altitude
Rises 01:19:41 0° 259° (W) 2,468 7.3 -6.2°
Reaches altitude 10° 01:21:57 10° 272° (W) 1,630 5.6 -6.6°
Maximum altitude 01:25:10 28° 333° (NNW) 953 3.3 -7.2°
Drops below altitude 10° 01:28:36 10° 34° (NE) 1,750 4.1 -7.8°
Enters shadow 01:29:18 - 38° (NE) 2,000 4.3 -7.9°
